Location: Hylvaty SDH
(49.9612°N, 16.4057°E)
Time: 12:41:26
(UTC+01:00)

A-11 Canister half - Pass Details

Date: 02 October 2020
Orbit: 1526 x 1683 km, 47.3° (Epoch: 28 October)

Event Time Altitude Azimuth Distance (km) Brightness Sun altitude
Rises 23:34:19 0° 244° (WSW) 4,670 11.5 -41.8°
Enters shadow 23:35:40 - 243° (WSW) 4,230 11.3 -41.9°
Reaches altitude 10° 23:37:21 10° 242° (WSW) 3,691 - -42.0°
Maximum altitude 23:46:31 67° 163° (SSE) 1,649 - -42.5°
Drops below altitude 10° 23:55:55 10° 83° (E) 3,772 - -43.0°
Sets 23:59:03 0° 81° (E) 4,778 - -43.1°
Exits shadow 23:59:04 - 81° (E) 4,784 11.5 -43.1°
